Погода в Череповеце

Погода в Череповеце : погода сейчас, прогноз погоды и архив. Всё, что Вы хотите узнать о погоде в Череповеце!

Хотите узнать прогноз погоды в Череповеце? Тогда Вам сюда: Погода в Череповеце

Поиск расширенной информации на нашем сайте:

Другие новости

Новости СМИ2

Главная страница сайта

Новости сайта

03.07.2017

Напоминаем, что на нашем специализированном сайте Метеоцентр.Азия вы можете получить высокодетализированные автоматические прогнозы погоды по пунктам России, СНГ и мира в авиационном формате (включающие направление и скорость ветра, видимость, явления погоды, количество и форму облачности, нижнюю и верхнюю границу облачности).

Рекомендуем: Flowers City доставка цветов в шляпных коробках.

Погода в Череповеце - сегодня

Время (UTC), дата Ветер
(°,м/с) 
Видим.   Явления Облачность Т
(°С)
Тd
(°С)
f(%) Тe
(°С)
Pmin
(гПа)
dP
(гПа)
Po
(мм)
O2
(г/м3)
Тmin Tmax R s Состояние
почвы
06 20.07.17 210 (ЮЗ) 10 км  {туман}  6/3 600 м средняя, верхняя 
[Sc|Ac trans|Ci fib]
+16.2 +10.2 68 +17  1013.6  -0.3  750  283           
09 20.07.17 210 (ЮЗ) 10 км    8/4 600 м кучево-дожд., средняя, верхняя 
[Cb calv|Ac trans|Ci fib]
+19.3 +10.4 56 +22  1012.8  -0.6  749  280           
12 20.07.17 тихо ()   10 км  в посл. час гроза{ливн. осадки}  8/4 600 м кучево-дожд., средняя 
[Cb cap|Ac trans]
+16.4 +10.7 69 +19  1013  749  283           
15 20.07.17 330 (СЗ) 10 км  гроза, ливневой дождь  8/4 600 м кучево-дожд., средняя 
[Cb cap|Ac trans]
+13.1 +10.6 85 +15  1013.1  749  286    +20     
18 20.07.17 тихо ()   10 км  местами туман поземный{гроза, ливн. осадки}  8/3 1000 м средняя, верхняя 
[Sc|Ac trans|Ci fib]
+12.4 +11.9 97 +16  1012.7  -0.5  749  286           
21 20.07.17 тихо ()   2000 м  местами туман поземный  4/1 1000 м средняя 
[Sc|Ac trans]
+10.5 +10.3 99 +12  1013.3  0.5  749  289           
00 21.07.17 тихо ()   0200 м  туман  3/0 верхняя 
[Ci fib]
+7.7 +7.7 100 +8  1013.2  -0.2  749  292           
03 21.07.17 тихо ()   7000 м  в посл. час туман  8/0 средняя, верхняя 
[Ac trans|Ci fib]
+9 +8.8 99 +9  1013.1  749  291  +7.2      влажная 
06 21.07.17 070 (В) 10 км  {туман}  9/4 600 м средняя 
[Sc|Ac trans]
+14.9 +12.9 88 +21  1012.8  749  284           
09 21.07.17 290 (З) 10 км    10/6 570 м кучево-дожд., средняя 
[Cb calv|Ac trans]
+16.6 +12.2 75 +22  1012.5  -0.2  749  282           
12 21.07.17 280 (З) 4100 м  ливневой дождь{гроза}  10/4 300 м кучево-дожд., средняя 
[Cb calv|Ac trans]
+14 +12.9 93 +20  1013.1  0.4  749  285           
15 21.07.17 310 (СЗ) 10 км  {ливн. осадки}  9/4 600 м кучево-дожд., средняя, верхняя 
[Cb calv|Ac trans|Ci fib]
+15.1 +13.6 91 +22  1012.7  -0.3  749  283    +16.8     
18 21.07.17 300 (СЗ) 10 км  {ливн. осадки}  10/4 600 м кучево-дожд., средняя 
[Cb calv|Ac trans]
+13.6 +11.5 87 +17  1013.4  0.6  750  286           
21 21.07.17 тихо ()   10 км    6/3 600 м средняя, верхняя 
[Sc|Ac trans|Ci fib]
+12.4 +11.7 95 +16  1013.9  0.4  750  287           
00 22.07.17 270 (З) 8000 м  дымка  8/3 600 м средняя 
[Sc|Ac trans]
+11.5 +11.1 97 +16  1013.8  -0.1  750  288           
03 22.07.17 тихо ()   10 км    8/0 средняя 
[Ac lent]
+11.6 +11.2 97 +14  1014.4  0.6  750  288  +11    0.5    влажная 
06 22.07.17 300 (СЗ) 10 км  {ливн. осадки}  9/4 300 м кучево-дожд., средняя 
[Cb calv|Ac trans]
+14.6 +13.5 93 +22  1014.5  0.3  750  284           
09 22.07.17 310 (СЗ) 10 км    8/4 600 м кучево-дожд., средняя, верхняя 
[Cb calv|Ac trans|Ci fib]
+19.8 +12.1 61 +25  1014.1  -0.2  750  280           
12 22.07.17 220 (ЮЗ) 10 км  гроза без осадков{ливн. осадки}  9/6 540 м кучево-дожд., средняя 
[Cb cap|Ac trans]
+19.1 +13.5 70 +26  1013.6  -0.5  750  280           
15 22.07.17 270 (З) 10 км  {гроза, ливн. осадки}  8/3 600 м кучево-дожд., средняя, верхняя 
[Cb calv|Ac trans|Ci fib]
+16.5 +13.6 83 +23  1013.9  0.2  750  282    +20.5  0.8     
18 22.07.17 310 (СЗ) 10 км  {гроза, ливн. осадки}  3/1 600 м средняя, верхняя 
[Sc|Ac trans|Ci fib]
+14.5 +12.8 90 +21  1013.6  -0.4  750  284           
21 22.07.17 320 (СЗ) 10 км    3/1 600 м средняя 
[Sc|Ac trans]
+11.8 +11 95 +16  1013.3  -0.5  749  287           
00 23.07.17 270 (З) 10 км  местами туман поземный  3/0 средняя, верхняя 
[Ac trans|Ci fib]
+9.8 +9.2 96 +10  1012.7  -0.7  749  290           
03 23.07.17 260 (З) 10 км    3/1 600 м средняя 
[Sc|Ac trans]
+10.3 +9.7 96 +11  1011.9  -0.8  748  289  +8.9        влажная 
06 23.07.17 250 (З) 10 км    9/4 600 м средняя 
[Sc|Ac trans]
+13.9 +10.9 82 +16  1011  -0.6  748  285           
Время (UTC), дата Ветер
(°,м/с) 
Видим.   Явления Облачность Т
(°С)
Тd
(°С)
f(%) Тe
(°С)
Pmin
(гПа)
dP
(гПа)
Po
(мм)
O2
(г/м3)
Тmin Tmax R s Состояние
почвы

Для получения пояснительной информации подведите курсор к названию столбца.

ПОГОДА в Череповеце - архив

Всё, что Вы хотите узнать о погоде в Череповеце - удобно и подробно!

Выберите нужную дату (начиная с 1 января 2015* года) и нажмите кнопку "Найти".
Будут отображены архивные сводки погоды по пункту Череповец, начиная с указанной даты.


Отображать данные в формате CSV (для использования в таблицах Excel)


Внимание! Наш архив погоды предназначен исключительно для личного некоммерческого использования в познавательных целях. Если Вам необходимы официальные справки о состоянии погоды (для производственных, юридических, коммерческих и т.п. целей), обращайтесь в органы Росгидромета.

*Примечание: данная дата относится к архиву по метеостанциям СССР (Россия, СНГ, Балтия).
Архив по метеостанциям Зарубежной Европы и Азии (кроме Китая) хранится 10 дней, по другим регионам земного шара (Китай, Африка, Америка, Австралия, Океания) - 1 день.

Череповец - район местоположения метеостанции


Название, широта, долгота, высота метеостанции:
Череповец 59.2°ш. 38°д. 114 м над ур. моря [Российская Федерация]

Дополнительная информация

В oтличие oт бoльшинства пoгoдных сайтoв мы публикуем пoдрoбную метеoинфoрмацию в детальнoм прoфессиoнальнoм фoрмате.

Характеристики температуры и влажнoсти вoздуха измеряются на высoте 2 м в тени вдали oт зданий и деревьев.
Скoрoсть ветра измеряется на высoте 10 м (на урoвне рoста челoвека скoрoсть ветра ниже в 1.5-2 раза). Если метеoстанция нахoдится в гoрoде или в лесу, тo скoрoсть ветра занижена на 2-4 м/с пo сравнению с oткрытым местoм. Скoрoсть ветра над акватoриями крупных рек и oзёр, а также на вершинах хoлмoв на 2-5 м/с выше, чем в oбычных услoвиях.
Атмoсфернoе давление в разных тoчках местнoсти мoжет значительнo oтличаться oт давления на метеoстанции, в зависимoсти oт услoвий рельефа (при пoдъёме на 10 м давление пoнижается примернo на 1 мм рт.ст.).